Date,TemperatureHighF,TemperatureAvgF,TemperatureLowF,DewpointHighF,DewpointAvgF,DewpointLowF,HumidityHigh,HumidityAvg,HumidityLow,PressureMaxIn,PressureMinIn,WindSpeedMaxMPH,WindSpeedAvgMPH,GustSpeedMaxMPH,PrecipitationSumIn
2013-1-1,55.4,40.7,32.5,48.0,35.8,29.5,100,86,41,30.17,30.09,6,0,6,0.00
2013-1-2,61.3,39.8,29.8,50.0,35.1,28.7,100,88,31,30.14,30.03,4,0,4,0.00
2013-1-3,60.8,40.6,30.4,53.1,36.4,30.4,100,88,40,30.17,30.09,4,0,4,0.00
2013-1-4,62.8,42.4,32.2,51.4,35.8,28.0,100,84,28,30.20,30.09,7,0,8,0.00
2013-1-5,52.3,44.9,35.6,49.9,43.6,35.6,100,96,76,30.17,30.00,6,0,10,0.40
2013-1-6,49.8,45.6,38.8,47.8,44.3,38.6,99,95,85,30.11,29.97,5,0,8,0.08
2013-1-7,59.0,46.9,39.6,55.1,44.6,39.0,99,93,61,30.17,30.09,5,0,6,0.04
2013-1-8,66.6,47.6,39.4,59.9,43.9,38.9,99,89,38,30.14,30.03,4,0,5,0.00
2013-1-9,55.2,45.1,38.5,52.7,43.6,38.2,99,95,76,30.06,29.94,6,0,7,0.00
2013-1-10,49.5,41.1,36.0,43.9,37.0,30.1,99,87,50,30.11,30.00,5,0,11,0.08
2013-1-11,50.9,40.8,32.7,44.1,36.1,28.6,100,86,43,30.17,30.06,9,0,9,0.00
2013-1-12,52.0,38.7,30.7,44.1,32.6,20.9,100,83,31,30.17,30.06,4,0,5,0.00
2013-1-13,50.4,35.3,26.8,37.9,26.0,17.4,100,76,29,30.17,30.09,5,0,6,0.00
2013-1-14,53.2,37.6,28.6,26.1,20.1,12.2,87,53,25,30.32,30.11,5,0,9,0.00
2013-1-15,55.9,37.6,27.5,37.6,28.3,23.2,99,75,31,30.38,30.29,6,1,8,0.00
2013-1-16,63.7,41.1,28.8,42.8,31.9,25.6,100,77,26,30.32,30.17,7,0,8,0.00
2013-1-17,71.4,45.3,30.9,50.6,35.4,30.9,100,77,24,30.17,30.03,6,0,6,0.00
2013-1-18,70.2,46.0,32.4,50.9,34.4,25.3,100,74,19,30.11,30.03,6,0,9,0.00
2013-1-19,71.6,46.9,32.2,51.4,34.4,26.2,100,72,19,30.14,30.06,8,0,8,0.00
2013-1-20,72.5,46.6,31.1,49.1,36.5,31.1,100,76,24,30.14,30.03,6,0,6,0.00
2013-1-21,71.8,45.7,30.7,49.4,35.4,26.2,100,76,19,30.09,30.00,6,0,7,0.00
2013-1-22,68.9,47.4,31.8,47.7,36.8,27.0,100,74,22,30.03,29.94,6,0,10,0.00
2013-1-23,53.4,48.0,43.2,52.3,46.1,40.8,96,93,85,30.00,29.91,0,0,0,0.04
2013-1-24,55.2,52.3,49.1,53.5,50.8,48.0,96,95,93,30.11,29.97,0,0,0,0.20
2013-1-25,68.2,57.3,50.4,64.8,54.2,49.3,96,90,65,30.11,29.97,5,0,6,0.00
2013-1-26,55.9,49.2,44.6,51.4,43.4,35.9,97,82,48,30.03,29.94,6,1,8,0.00
2013-1-27,56.1,46.9,43.0,42.5,37.7,29.8,96,73,38,30.09,30.00,4,1,8,0.00
2013-1-28,56.7,46.4,38.1,45.6,39.6,34.3,98,80,44,30.23,30.09,6,1,7,0.00
2013-1-29,59.7,48.8,41.7,45.0,41.4,35.8,98,78,47,30.26,30.17,5,1,10,0.00
2013-1-30,65.8,50.1,40.5,46.3,42.2,38.9,99,78,39,30.26,30.17,8,1,10,0.00
2013-1-31,69.6,49.0,34.9,55.4,41.6,34.9,100,82,32,30.20,30.09,6,0,8,0.00
2013-2-1,71.4,49.9,36.7,55.7,41.9,33.4,100,81,26,30.14,30.03,8,1,9,0.00
2013-2-2,66.0,48.7,40.1,51.5,44.9,39.8,99,89,40,30.20,30.11,6,0,9,0.00
2013-2-3,61.5,49.0,42.4,46.4,42.9,39.1,98,82,47,30.17,30.06,5,0,7,0.00
2013-2-4,69.1,49.6,34.9,52.6,41.5,34.9,100,79,31,30.14,29.97,5,0,5,0.00
2013-2-5,54.7,48.7,43.5,47.1,43.7,39.9,97,84,59,30.11,30.03,6,1,8,0.00
2013-2-6,61.7,46.5,34.5,47.6,39.0,34.5,100,79,39,30.41,30.11,8,1,8,0.00
2013-2-7,53.8,41.9,34.3,50.2,38.3,31.8,100,89,49,31.35,30.26,6,0,6,0.08
2013-2-8,50.4,41.9,34.0,45.4,39.1,33.8,100,91,55,31.65,30.65,6,0,6,0.04
2013-2-9,60.4,41.2,31.1,46.6,31.7,23.5,100,76,28,31.65,31.62,4,0,6,0.00
2013-2-10,62.2,42.5,29.1,45.8,32.1,26.3,100,74,28,31.65,31.65,4,0,6,0.00
2013-2-11,61.5,44.6,32.4,46.6,31.9,22.8,100,70,23,31.65,31.65,5,0,6,0.00
2013-2-12,62.4,44.8,31.1,48.7,36.5,30.9,100,79,35,31.65,31.65,6,1,6,0.00
2013-2-13,67.5,47.4,32.9,50.4,36.2,29.7,100,73,26,31.65,31.65,4,0,4,0.00
2013-2-14,70.0,50.3,35.2,52.6,37.8,32.0,100,71,27,31.65,31.65,5,0,5,0.00
2013-2-15,77.0,53.0,36.3,52.1,39.7,34.3,99,70,23,31.65,31.65,5,0,5,0.00
2013-2-16,73.8,52.4,38.1,50.3,39.6,31.9,99,70,23,31.65,31.65,6,0,8,0.00
2013-2-17,63.0,49.8,40.1,44.0,41.4,34.2,98,77,40,31.65,31.65,8,1,9,0.00
2013-2-18,50.9,44.4,38.8,45.9,39.6,32.8,99,85,55,31.65,31.65,4,0,6,0.00
2013-2-19,46.4,41.3,34.0,45.6,40.6,34.0,100,97,85,31.65,31.65,8,0,10,0.40
2013-2-20,57.0,43.6,33.1,47.5,36.9,30.9,100,81,40,31.65,31.65,6,1,8,0.04
2013-2-21,57.9,46.9,35.6,41.6,35.1,26.7,97,68,31,31.65,31.65,6,1,9,0.00
2013-2-22,66.0,46.1,31.3,46.4,35.7,28.5,100,74,29,31.65,30.17,5,0,8,0.00
2013-2-23,57.9,47.9,39.2,46.3,38.8,31.7,97,74,38,30.17,30.09,5,1,8,0.00
2013-2-24,61.5,48.3,35.8,34.0,26.5,20.2,89,46,26,30.20,30.09,6,1,6,0.00
2013-2-25,66.6,46.1,30.7,45.1,37.2,30.5,100,77,30,30.20,30.11,6,1,6,0.00
2013-2-26,67.6,48.3,32.5,45.2,31.0,21.7,100,63,19,30.14,30.06,6,0,8,0.00
2013-2-27,72.0,50.3,32.5,41.2,34.0,29.7,99,62,24,30.29,30.14,5,0,6,0.00
2013-2-28,72.3,53.0,39.9,50.6,44.6,38.2,98,77,38,30.38,30.29,5,0,8,0.00
2013-3-1,76.3,56.3,40.6,56.7,45.3,36.1,99,73,24,30.38,30.14,6,1,6,0.00
2013-3-2,73.0,56.5,45.7,56.3,44.4,35.6,97,70,29,30.20,30.03,6,1,7,0.00
2013-3-3,66.0,53.4,46.9,52.8,45.4,38.0,96,78,39,30.06,30.00,6,1,8,0.00
2013-3-4,63.3,50.2,42.1,45.2,43.0,38.6,96,79,42,30.09,30.00,8,1,9,0.00
2013-3-5,53.4,46.7,41.0,46.8,41.2,35.7,98,83,54,30.03,29.85,10,2,17,0.71
2013-3-6,54.5,47.8,39.9,48.8,41.6,30.4,99,82,42,30.03,29.85,9,1,13,0.95
2013-3-7,53.8,45.1,37.2,47.9,39.3,31.2,100,83,43,29.94,29.79,8,1,10,0.36
2013-3-8,55.4,47.6,42.6,49.5,42.2,38.5,98,83,57,30.03,29.76,8,2,11,0.12
2013-3-9,64.4,51.9,41.2,43.9,39.0,30.5,98,66,29,30.26,30.03,6,1,10,0.00
2013-3-10,71.2,51.4,35.4,51.3,37.6,30.2,100,69,24,30.26,30.17,4,0,5,0.00
2013-3-11,77.2,54.1,36.1,47.3,39.3,33.8,99,67,22,30.20,30.06,5,0,6,0.00
2013-3-12,79.7,57.3,39.0,51.5,43.6,37.3,99,69,24,30.09,30.00,6,0,8,0.00
2013-3-13,81.9,60.1,43.5,56.4,46.3,38.3,98,69,22,30.09,30.00,10,1,10,0.00
2013-3-14,76.8,58.0,45.1,57.1,44.5,32.3,97,67,29,30.09,30.03,6,1,11,0.00
2013-3-15,75.4,55.6,41.0,49.3,43.5,37.9,97,69,30,30.09,30.00,6,0,9,0.00
2013-3-16,76.6,56.5,43.3,52.2,41.9,28.8,98,66,24,30.06,29.97,6,1,11,0.00
2013-3-17,72.3,53.3,40.8,47.3,40.0,31.9,98,68,23,30.09,29.97,8,1,8,0.00
2013-3-18,68.7,51.3,36.1,49.2,39.9,35.1,99,71,30,30.06,29.97,5,0,6,0.00
2013-3-19,73.9,54.0,41.0,49.1,41.7,34.3,97,69,28,30.09,30.00,8,1,8,0.08
2013-3-20,63.1,55.5,50.2,56.4,51.2,45.9,96,86,55,30.09,30.03,6,0,6,0.00
2013-3-21,65.1,51.8,41.7,50.3,40.4,33.9,96,69,37,30.09,29.94,6,1,8,0.00
2013-3-22,68.7,52.3,38.7,41.7,31.1,22.2,99,53,19,30.03,29.97,4,1,8,0.00
2013-3-23,70.9,51.1,34.3,39.7,33.5,24.2,98,60,19,30.06,29.97,5,0,8,0.00
2013-3-24,73.8,52.6,36.3,45.4,40.3,34.2,99,69,29,30.03,29.91,6,1,8,0.00
2013-3-25,69.8,51.1,39.2,47.3,40.9,32.0,98,74,27,29.97,29.88,7,1,10,0.00
2013-3-26,71.6,53.3,43.5,48.9,43.1,39.6,97,73,35,29.94,29.85,8,0,10,0.00
2013-3-27,65.3,53.7,43.7,53.5,48.1,42.6,97,83,52,29.97,29.91,8,1,9,0.00
2013-3-28,68.0,57.7,52.0,54.3,51.8,46.7,96,83,49,30.03,29.97,8,1,8,0.00
2013-3-29,73.2,59.4,47.3,57.7,48.5,42.6,96,72,36,30.03,29.97,10,1,12,0.00
2013-3-30,66.6,55.7,50.7,54.2,50.8,39.6,96,85,39,30.03,29.97,9,1,11,0.24
2013-3-31,61.7,56.3,54.1,55.3,51.5,42.7,95,85,51,30.03,29.94,9,1,11,0.08
2013-4-1,63.9,56.3,48.7,54.1,49.8,41.9,96,81,46,30.11,30.00,6,1,9,0.68
2013-4-2,69.8,55.3,45.1,55.7,48.0,42.2,97,80,39,30.11,30.03,4,0,6,0.00
2013-4-3,75.7,57.8,44.8,53.0,45.4,33.9,97,71,23,30.09,29.94,8,1,10,0.00
2013-4-4,59.7,53.6,50.2,57.4,51.7,48.8,95,93,88,30.09,29.97,6,0,6,0.44
2013-4-5,65.1,57.2,50.5,55.6,50.0,42.7,95,79,49,30.14,30.06,5,1,8,0.00
2013-4-6,65.3,55.4,48.9,55.1,49.3,41.9,96,82,46,30.14,30.06,4,0,6,0.00
2013-4-7,67.5,55.0,46.8,55.9,47.6,41.2,96,79,46,30.11,29.82,8,1,8,0.04
2013-4-8,63.5,51.9,43.5,50.6,37.6,28.2,96,62,28,29.94,29.79,13,3,13,0.04
2013-4-9,71.4,57.8,41.4,41.5,34.5,28.9,97,48,24,31.65,29.94,6,2,11,0.00
2013-4-10,83.1,65.6,53.1,48.4,43.7,39.5,84,49,23,31.65,31.65,6,2,10,0.00
2013-4-11,70.0,56.1,45.9,49.0,43.7,36.9,93,66,32,31.65,29.85,8,2,10,0.00
2013-4-12,76.5,54.6,39.2,47.7,43.5,38.7,98,72,33,29.88,29.79,8,1,9,0.00
2013-4-13,69.4,52.7,44.1,46.2,41.1,32.8,97,69,34,29.88,29.82,7,2,12,0.00
2013-4-14,67.8,51.8,41.2,46.4,38.6,28.4,96,67,27,29.88,29.82,10,2,12,0.00
2013-4-15,55.2,48.5,42.8,48.7,37.9,28.7,97,69,42,29.91,29.82,9,2,15,0.00
2013-4-16,64.2,49.0,34.7,44.3,33.5,26.3,99,63,27,30.09,29.91,8,1,8,0.00
2013-4-17,67.8,54.2,41.2,38.8,29.7,25.6,90,42,24,30.20,30.09,11,1,11,0.00
2013-4-18,75.2,57.5,36.3,39.8,33.0,28.3,95,47,20,30.20,30.11,6,1,9,0.00
2013-4-19,84.7,62.9,39.7,44.9,39.1,35.2,90,48,21,30.17,30.03,6,1,11,0.00
2013-4-20,82.2,61.2,45.0,48.5,40.5,33.7,97,55,21,30.06,29.94,5,1,8,0.00
2013-4-21,87.3,64.4,42.8,47.5,40.4,33.0,97,52,15,30.00,29.88,6,0,6,0.00
2013-4-22,88.0,62.5,46.8,50.7,45.8,39.0,94,61,20,29.94,29.82,10,1,10,0.00
2013-4-23,74.8,57.0,45.3,50.3,47.2,43.0,97,75,34,29.91,29.82,10,2,10,0.00
2013-4-24,62.6,52.6,46.0,50.2,47.4,45.2,97,84,56,29.94,29.79,8,1,10,0.00
2013-4-25,72.7,55.9,44.2,52.7,46.2,43.4,97,74,38,30.09,29.94,5,1,9,0.00
2013-4-26,77.5,58.5,46.6,50.0,47.0,41.0,96,71,36,30.17,30.09,6,1,8,0.00
2013-4-27,82.8,61.0,42.1,49.1,45.4,40.7,98,64,28,30.17,30.03,8,1,8,0.00
2013-4-28,83.3,62.9,43.3,53.5,47.7,42.4,97,64,31,30.03,29.85,8,1,10,0.00
2013-4-29,92.1,67.2,49.6,53.3,46.3,38.5,96,57,19,29.88,29.73,10,1,10,0.00
2013-4-30,82.2,62.8,46.8,49.0,41.9,33.9,95,54,22,29.82,29.76,6,1,8,0.00
2013-5-1,80.6,59.7,43.9,50.1,44.1,36.8,95,61,23,30.06,29.82,10,2,10,0.00
2013-5-2,90.3,68.0,46.6,49.7,41.7,33.6,96,50,15,30.09,30.06,6,1,9,0.00
2013-5-3,91.4,67.6,46.4,44.0,36.1,28.2,71,37,14,30.06,29.79,5,1,6,0.00
2013-5-4,79.2,58.8,46.6,49.2,42.2,34.2,86,58,26,29.79,29.61,9,2,11,0.00
2013-5-5,61.0,56.1,53.1,51.5,47.3,44.6,86,73,58,29.76,29.58,13,4,20,0.00
2013-5-6,64.6,57.7,53.4,53.2,49.1,43.1,93,74,48,29.94,29.76,8,1,10,0.00
2013-5-7,69.4,57.5,50.4,53.9,49.1,40.4,95,76,36,30.00,29.91,6,0,8,0.00
2013-5-8,70.5,55.2,44.1,52.1,46.6,41.8,98,76,41,30.09,30.00,6,1,10,0.00
2013-5-9,72.9,55.4,49.3,49.8,48.2,45.4,95,79,40,30.14,30.03,6,1,7,0.00
2013-5-10,79.9,58.4,49.8,52.6,49.3,47.0,95,76,34,30.14,30.06,6,0,8,0.00
2013-5-11,92.1,65.6,47.1,56.7,48.3,43.7,97,62,20,30.11,30.00,8,1,8,0.00
2013-5-12,86.4,67.0,49.6,54.0,47.4,37.0,94,55,22,30.09,30.00,8,1,10,0.00
2013-5-13,83.1,63.2,46.9,50.9,46.1,42.6,90,58,32,30.03,29.94,8,1,11,0.00
2013-5-14,76.3,58.9,48.6,51.8,45.3,34.3,96,65,27,30.00,29.91,8,2,10,0.00
2013-5-15,66.0,55.4,47.8,50.0,43.7,36.0,90,68,35,30.03,30.00,9,2,11,0.00
2013-5-16,70.2,58.4,50.5,55.3,49.3,43.1,95,75,39,30.00,29.94,8,2,9,0.00
2013-5-17,71.4,57.1,48.9,48.5,42.2,31.7,93,63,25,30.06,29.94,8,1,9,0.00
2013-5-18,76.6,59.0,47.8,50.0,44.1,34.3,91,63,24,30.09,30.03,7,1,9,0.00
2013-5-19,83.3,63.0,45.3,50.5,41.5,31.2,97,55,22,30.09,29.94,6,1,10,0.00
2013-5-20,90.7,66.1,44.1,47.3,39.1,31.4,91,46,15,29.97,29.91,6,1,10,0.00
2013-5-21,66.6,55.4,48.2,46.7,41.9,35.8,86,62,35,29.97,29.88,10,2,14,0.00
2013-5-22,66.9,56.0,46.6,41.5,34.3,27.4,76,48,26,29.94,29.91,6,2,9,0.00
2013-5-23,66.9,53.5,45.3,42.7,38.8,35.5,89,60,35,29.97,29.91,8,2,8,0.00
2013-5-24,73.0,53.1,38.1,46.2,39.9,35.9,98,67,28,29.97,29.94,7,1,10,0.00
2013-5-25,65.1,54.1,46.4,49.1,43.3,38.0,88,69,39,30.03,29.94,7,2,11,0.00
2013-5-26,71.2,59.0,52.0,54.3,49.3,43.2,96,74,38,30.09,30.03,6,1,9,0.00
2013-5-27,66.0,58.7,51.8,55.0,51.1,47.7,94,77,52,30.09,29.97,5,1,9,0.00
2013-5-28,73.0,61.7,52.2,59.8,51.5,41.8,95,72,37,29.97,29.88,7,1,8,0.00
2013-5-29,73.9,58.9,50.4,55.1,48.0,40.8,94,70,36,29.94,29.88,8,1,10,0.00
2013-5-30,78.8,59.7,46.8,48.1,40.1,29.5,96,57,17,29.97,29.91,8,1,12,0.00
2013-5-31,90.1,65.9,43.7,50.0,42.0,34.5,96,52,17,29.97,29.88,6,1,8,0.00
2013-6-1,97.3,70.5,48.4,50.5,45.0,37.8,92,49,16,29.91,29.73,6,1,8,0.00
2013-6-2,76.5,61.2,50.4,51.2,48.5,45.4,95,66,39,29.76,29.67,10,2,10,0.00
2013-6-3,67.3,57.6,51.3,52.9,49.5,46.9,96,77,51,29.85,29.73,8,2,10,0.00
2013-6-4,69.3,56.8,46.8,53.2,50.0,45.7,96,80,52,29.94,29.82,8,1,9,0.00
2013-6-5,73.4,59.2,48.6,54.3,49.3,47.4,96,73,45,29.97,29.88,9,2,10,0.00
2013-6-6,77.4,61.3,51.8,52.9,50.5,47.1,95,72,40,29.94,29.82,11,2,11,0.00
2013-6-7,93.7,66.3,51.8,56.8,52.3,50.4,95,67,29,29.88,29.73,8,1,10,0.00
2013-6-8,76.8,62.3,51.1,57.7,52.9,49.7,95,74,44,29.82,29.70,8,2,13,0.00
2013-6-9,68.0,59.9,56.3,56.0,53.7,50.9,94,81,60,29.85,29.79,8,2,9,0.00
2013-6-10,66.4,59.5,53.6,51.5,49.6,46.9,90,71,51,29.91,29.82,6,2,11,0.00
2013-6-11,75.2,61.3,51.6,55.5,51.6,47.8,95,74,42,29.94,29.85,6,1,8,0.00
2013-6-12,79.9,59.9,46.0,54.2,42.8,33.1,97,61,19,30.00,29.88,10,2,12,0.00
2013-6-13,82.2,61.8,46.9,47.4,43.6,33.7,95,58,24,30.03,29.97,6,1,9,0.00
2013-6-14,87.4,65.1,44.6,49.5,42.0,34.3,97,53,20,29.97,29.79,6,1,8,0.00
2013-6-15,73.2,58.0,43.3,51.4,46.7,41.5,96,69,40,29.97,29.82,10,2,10,0.00
2013-6-16,84.0,62.7,46.6,50.1,44.6,38.4,96,59,23,30.06,29.97,8,1,9,0.00
2013-6-17,78.1,61.9,50.4,53.7,49.1,44.5,94,67,32,30.06,30.00,6,1,9,0.00
2013-6-18,68.7,59.1,53.4,53.8,46.9,38.5,92,67,36,30.03,29.97,8,2,13,0.00
2013-6-19,72.3,59.8,49.6,49.1,43.9,38.8,92,60,31,30.00,29.97,8,2,9,0.00
2013-6-20,80.1,61.0,44.6,50.2,43.2,34.7,97,59,23,30.00,29.91,8,2,10,0.00
2013-6-21,84.0,62.8,45.9,50.2,44.8,35.8,96,59,23,29.94,29.88,6,1,10,0.00
2013-6-22,90.1,64.4,45.3,53.9,44.6,35.1,97,58,20,29.91,29.82,10,2,12,0.00
2013-6-23,70.2,63.4,56.7,59.5,56.8,54.0,93,80,63,29.88,29.79,5,1,6,0.00
2013-6-24,64.2,61.2,59.7,59.9,58.5,57.6,93,91,84,29.88,29.76,6,1,6,0.00
2013-6-25,68.5,62.9,58.3,65.2,60.3,56.3,93,91,88,29.97,29.88,4,0,7,0.08
2013-6-26,86.4,71.6,62.1,65.1,59.7,55.8,92,69,41,30.00,29.94,6,1,8,0.00
2013-6-27,92.8,73.8,56.7,63.1,54.6,46.1,94,58,23,30.03,29.97,6,1,8,0.00
2013-6-28,103.1,78.7,56.7,55.5,50.6,42.5,88,46,18,30.00,29.88,8,1,8,0.00
2013-6-29,104.2,80.4,58.8,50.9,47.0,40.9,73,36,15,29.91,29.79,6,1,8,0.00
2013-6-30,97.7,77.3,58.1,53.8,49.1,41.8,80,44,18,29.82,29.73,6,1,8,0.00
2013-7-1,89.8,73.7,57.2,55.2,52.5,49.0,85,52,26,29.85,29.76,8,2,10,0.00
2013-7-2,91.6,73.9,60.8,57.9,53.8,48.1,86,54,24,29.91,29.82,9,1,11,0.00
2013-7-3,92.7,73.9,58.8,58.6,54.9,47.6,91,57,28,29.88,29.76,10,1,10,0.00
2013-7-4,90.0,70.9,60.4,57.9,56.2,53.7,88,63,32,29.76,29.70,8,1,12,0.00
2013-7-5,76.8,63.1,53.8,57.0,51.2,45.0,92,68,41,29.79,29.70,8,1,9,0.00
2013-7-6,73.8,59.3,53.8,54.7,52.0,49.5,94,79,44,29.79,29.73,7,0,10,0.00
2013-7-7,79.7,61.6,52.9,53.3,50.6,44.6,94,72,32,29.85,29.76,6,2,11,0.00
2013-7-8,84.6,63.6,52.9,54.4,49.6,38.1,95,68,21,29.94,29.85,8,2,9,0.00
2013-7-9,97.3,70.3,50.0,53.9,49.7,43.0,96,59,16,29.97,29.88,7,2,8,0.00
2013-7-10,84.2,65.0,53.4,55.8,52.5,47.8,95,69,33,29.97,29.85,10,2,10,0.00
2013-7-11,76.8,62.6,53.6,54.6,51.3,44.4,95,71,40,29.91,29.85,9,1,11,0.00
2013-7-12,82.9,63.2,52.3,55.8,50.7,47.3,95,69,31,29.91,29.85,8,2,11,0.00
2013-7-13,85.5,63.1,47.3,53.3,49.8,46.2,96,68,31,29.94,29.85,9,2,10,0.00
2013-7-14,83.1,62.4,50.2,53.3,50.3,47.4,96,71,32,29.94,29.85,8,2,10,0.00
2013-7-15,75.7,60.0,52.7,54.1,51.6,48.3,95,77,40,29.91,29.79,10,2,11,0.00
2013-7-16,75.7,61.2,55.0,54.1,52.4,49.3,93,76,42,30.00,29.85,6,1,7,0.00
2013-7-17,86.9,65.1,55.2,54.6,52.2,49.0,91,67,30,30.06,29.97,5,0,6,0.00
2013-7-18,87.3,63.9,47.1,54.2,49.5,40.6,97,68,21,30.03,29.91,9,1,9,0.00
2013-7-19,82.2,62.8,48.2,53.5,50.8,47.0,96,70,35,29.91,29.79,9,2,10,0.00
2013-7-20,77.2,61.1,51.6,54.3,51.6,50.0,95,75,42,29.85,29.73,9,2,10,0.00
2013-7-21,83.3,65.7,52.0,57.5,51.8,48.4,96,67,32,29.88,29.76,8,2,11,0.00
2013-7-22,79.0,66.6,58.8,58.7,54.4,46.3,93,68,35,29.94,29.85,6,1,10,0.00
2013-7-23,84.6,69.1,60.3,61.1,54.2,48.2,91,63,30,29.97,29.91,8,2,11,0.00
2013-7-24,87.8,69.6,56.1,55.8,53.1,45.9,94,62,26,29.94,29.85,9,2,11,0.00
2013-7-25,84.2,65.9,52.5,57.5,52.8,50.7,95,68,34,30.00,29.91,12,2,12,0.00
2013-7-26,81.0,64.8,52.9,56.7,53.1,51.2,96,71,37,30.06,29.97,10,2,10,0.00
2013-7-27,79.9,64.0,55.2,57.3,53.5,50.3,95,73,37,30.00,29.85,8,2,12,0.00
2013-7-28,72.9,60.8,54.5,56.5,53.2,50.6,95,79,48,29.88,29.79,9,2,10,0.00
2013-7-29,72.0,60.1,54.5,53.0,51.4,48.6,92,75,46,30.00,29.85,8,2,10,0.00
2013-7-30,76.3,62.4,53.6,53.0,50.4,44.9,92,69,35,30.06,30.00,10,2,10,0.00
2013-7-31,79.7,62.8,53.1,52.6,49.0,38.2,94,66,25,30.06,29.97,8,2,10,0.00
2013-8-1,79.2,61.4,51.4,51.7,47.9,41.2,95,66,30,30.06,29.94,8,1,11,0.00
2013-8-2,83.7,62.5,47.8,54.2,48.9,46.0,96,67,30,29.94,29.88,8,1,10,0.00
2013-8-3,73.8,59.6,51.6,53.7,51.9,49.8,96,79,45,29.97,29.88,8,2,10,0.00
2013-8-4,75.4,61.6,53.1,54.5,51.9,49.8,95,74,44,29.97,29.91,11,2,11,0.00
2013-8-5,80.6,62.7,51.1,56.2,49.9,46.7,96,69,33,30.00,29.88,8,1,10,0.00
2013-8-6,74.7,61.3,52.5,53.8,51.4,49.1,95,73,44,30.03,29.94,8,2,10,0.00
2013-8-7,79.2,63.8,55.9,55.6,52.4,46.8,94,70,35,30.06,30.00,6,0,7,0.00
2013-8-8,74.8,60.5,52.9,56.0,52.4,47.1,95,78,38,30.00,29.91,8,2,11,0.00
2013-8-9,79.9,63.4,53.1,55.1,52.5,48.2,94,71,38,29.97,29.88,4,1,8,0.00
2013-8-10,85.5,66.0,55.2,55.5,53.0,48.7,94,68,32,30.00,29.94,5,1,8,0.00
2013-8-11,86.5,66.3,54.5,56.6,50.2,38.8,95,64,22,30.00,29.88,8,1,8,0.00
2013-8-12,86.0,65.8,49.8,56.5,51.0,41.3,96,66,22,29.97,29.91,8,1,10,0.00
2013-8-13,88.7,67.5,48.7,54.1,47.3,39.2,96,57,21,29.94,29.88,8,1,10,0.00
2013-8-14,86.4,66.8,50.0,60.2,49.3,38.7,93,61,21,29.94,29.88,6,1,11,0.00
2013-8-15,89.2,71.6,59.2,62.8,58.8,52.7,94,69,33,29.94,29.88,6,1,8,0.00
2013-8-16,90.5,71.3,57.4,63.6,53.5,38.9,94,60,26,29.94,29.91,8,1,10,0.00
2013-8-17,81.1,64.7,52.9,57.1,51.2,45.9,91,65,34,29.97,29.88,10,1,10,0.00
2013-8-18,95.4,69.8,51.4,57.6,52.7,43.8,96,63,18,29.88,29.76,8,1,10,0.00
2013-8-19,91.8,68.6,56.7,57.4,54.2,48.4,94,66,24,29.88,29.79,10,2,11,0.00
2013-8-20,79.9,63.6,55.8,56.6,53.7,47.6,95,74,33,29.88,29.79,10,2,10,0.00
2013-8-21,82.0,64.0,55.0,54.8,51.5,42.3,95,70,26,29.91,29.82,6,1,11,0.00
2013-8-22,80.8,63.5,51.8,55.6,51.6,44.2,95,70,29,29.94,29.85,5,1,8,0.00
2013-8-23,82.6,64.3,52.9,55.6,51.4,46.6,95,69,32,29.91,29.79,6,1,10,0.00
2013-8-24,85.8,66.3,51.6,59.9,53.2,48.5,96,69,29,29.88,29.82,8,1,9,0.00
2013-8-25,82.0,67.9,57.9,61.5,54.5,42.8,94,67,34,29.91,29.85,10,1,10,0.00
2013-8-26,82.2,66.0,58.1,58.1,53.1,45.0,92,68,34,29.97,29.85,8,1,8,0.00
2013-8-27,88.5,65.8,48.4,56.2,49.6,44.8,96,63,23,29.88,29.79,6,1,10,0.00
2013-8-28,89.2,68.8,51.1,59.6,54.0,43.2,96,66,21,29.91,29.82,6,1,10,0.00
2013-8-29,89.8,70.5,55.0,63.0,55.6,50.8,95,65,28,30.00,29.91,8,1,8,0.00
2013-8-30,96.3,72.9,55.2,62.5,52.6,45.7,95,57,19,30.00,29.88,8,1,9,0.00
2013-8-31,92.3,70.5,53.1,53.8,49.2,42.6,88,53,21,29.94,29.85,8,1,9,0.00
2013-9-1,87.4,70.6,60.1,59.8,53.0,47.2,86,58,31,29.91,29.82,8,1,9,0.00
2013-9-2,85.3,70.1,63.0,61.9,57.6,51.3,90,68,33,29.91,29.85,10,1,10,0.00
2013-9-3,79.9,66.8,55.9,60.2,52.0,41.7,95,66,27,29.94,29.91,6,1,7,0.00
2013-9-4,80.6,66.6,56.8,57.3,52.7,44.9,94,66,32,30.00,29.91,6,1,8,0.00
2013-9-5,80.1,66.7,58.5,56.9,52.3,44.6,86,64,32,29.97,29.94,7,2,8,0.00
2013-9-6,93.9,69.9,48.2,54.5,47.7,41.6,97,56,19,29.97,29.79,10,1,10,0.00
2013-9-7,91.4,69.9,52.9,57.0,49.3,42.2,84,55,20,29.85,29.79,9,2,10,0.00
2013-9-8,88.3,67.7,52.7,56.5,53.5,48.4,96,67,31,29.85,29.73,8,2,11,0.00
2013-9-9,90.1,69.0,54.3,57.2,53.2,45.7,95,65,24,29.79,29.70,11,2,11,0.00
2013-9-10,68.0,60.2,55.6,58.7,55.9,53.9,95,86,66,29.88,29.73,6,1,9,0.00
2013-9-11,75.6,64.2,57.7,57.0,55.2,51.9,91,75,46,29.97,29.88,6,1,9,0.00
2013-9-12,85.8,67.1,58.1,58.6,55.9,49.8,93,72,32,29.94,29.82,6,1,9,0.00
2013-9-13,88.0,66.6,56.3,59.6,52.3,38.3,95,67,22,29.88,29.73,8,1,8,0.00
2013-9-14,73.4,61.0,53.8,55.7,53.7,51.0,95,79,48,29.79,29.70,7,1,10,0.00
2013-9-15,83.5,64.9,52.5,58.4,53.0,48.2,95,71,32,29.82,29.76,8,1,8,0.00
2013-9-16,85.5,64.9,53.4,59.7,52.7,46.7,95,71,31,29.85,29.76,6,2,10,0.00
2013-9-17,71.6,61.8,52.9,54.9,51.3,43.1,92,71,39,29.88,29.82,8,2,13,0.00
2013-9-18,84.0,62.3,46.9,58.3,44.9,39.6,97,62,22,29.85,29.79,7,1,8,0.00
2013-9-19,93.7,65.4,43.2,45.1,41.5,35.5,92,51,16,29.82,29.70,6,1,8,0.00
2013-9-20,75.9,62.4,50.2,57.0,51.4,40.7,94,69,44,29.85,29.76,5,1,9,0.00
2013-9-21,63.9,60.3,53.2,61.5,57.6,51.8,95,91,78,29.88,29.79,4,0,7,0.44
2013-9-22,73.8,59.1,50.7,58.0,50.2,43.0,95,77,36,29.97,29.88,5,0,8,0.00
2013-9-23,84.2,63.9,48.2,58.1,50.9,42.3,96,70,24,29.97,29.88,4,0,6,0.00
2013-9-24,73.8,62.1,54.7,56.6,49.9,41.8,94,68,34,29.97,29.91,8,2,11,0.00
2013-9-25,66.9,57.3,49.8,50.1,44.3,37.0,96,65,35,29.91,29.79,10,2,10,0.00
2013-9-26,73.0,56.4,42.6,49.2,39.3,32.0,97,61,24,29.94,29.79,6,1,8,0.00
2013-9-27,76.8,56.9,39.4,43.9,36.3,28.5,97,55,20,30.06,29.94,4,1,6,0.00
2013-9-28,85.5,60.0,40.3,53.0,39.3,31.7,88,54,18,30.06,29.94,5,1,6,0.00
2013-9-29,81.3,63.4,47.8,57.9,51.1,44.1,96,71,31,30.06,30.00,5,1,6,0.00
2013-9-30,75.9,63.4,53.2,62.7,54.6,50.3,95,76,44,30.06,29.94,6,1,8,0.00
2013-10-1,75.9,60.2,49.1,52.5,44.8,39.1,93,60,28,29.97,29.88,6,1,8,0.00
2013-10-2,79.7,57.1,43.3,54.1,42.9,35.4,97,66,23,29.97,29.88,6,1,9,0.00
2013-10-3,72.0,57.6,42.3,44.6,36.0,27.2,95,52,23,30.00,29.91,8,1,11,0.00
2013-10-4,79.7,64.9,50.4,34.5,29.9,24.3,45,28,19,30.06,29.88,6,1,8,0.00
2013-10-5,85.8,62.5,41.0,37.7,30.9,26.6,67,35,15,30.14,30.06,6,1,10,0.00
2013-10-6,86.9,62.7,42.3,39.9,31.2,27.4,61,35,15,30.09,29.97,8,1,10,0.00
2013-10-7,86.7,62.6,44.2,37.7,30.9,24.5,56,33,15,29.97,29.85,4,0,7,0.00
2013-10-8,74.1,55.4,41.0,49.8,39.5,29.9,91,58,33,29.88,29.70,8,1,10,0.00
2013-10-9,66.4,55.7,45.5,47.9,41.3,36.2,96,62,37,29.73,29.58,5,1,6,0.00
2013-10-10,61.9,49.6,39.4,50.0,44.1,37.5,95,83,53,29.97,29.73,8,1,9,0.00
2013-10-11,72.0,54.7,46.0,52.1,45.2,38.8,96,76,30,30.03,29.94,6,1,8,0.00
2013-10-12,74.7,54.4,38.7,50.1,40.6,31.4,98,68,25,29.97,29.88,8,1,9,0.00
2013-10-13,73.9,57.8,46.8,52.5,42.3,33.4,96,64,24,30.03,29.88,4,0,6,0.00
2013-10-14,81.5,57.9,39.0,47.4,37.6,31.4,97,56,22,30.06,29.94,4,0,5,0.00
2013-10-15,81.3,58.7,39.2,41.6,34.0,30.6,81,46,19,30.00,29.88,5,0,6,0.00
2013-10-16,82.9,59.1,40.8,39.9,32.8,27.8,73,42,17,30.03,29.97,10,1,13,0.00
2013-10-17,85.3,59.9,40.3,39.7,31.8,26.9,67,39,18,30.03,29.91,5,0,6,0.00
2013-10-18,85.6,60.0,39.9,38.6,33.2,28.4,67,41,18,30.00,29.91,6,1,7,0.00
2013-10-19,85.3,61.2,41.5,43.8,37.8,31.6,84,49,15,30.00,29.94,8,1,9,0.00
2013-10-20,84.0,59.1,41.9,45.8,41.2,35.2,90,58,22,29.97,29.85,8,1,8,0.00
2013-10-21,79.5,56.7,39.7,47.3,41.2,36.2,92,64,23,29.94,29.85,8,1,10,0.00
2013-10-22,79.3,55.6,40.3,51.1,43.8,39.3,97,71,26,29.97,29.88,8,1,9,0.00
2013-10-23,78.3,54.4,41.5,51.7,45.6,40.8,97,78,30,29.94,29.85,9,1,9,0.00
2013-10-24,66.0,52.1,45.5,49.5,46.5,44.0,96,84,46,30.06,29.91,7,1,9,0.00
2013-10-25,77.4,55.7,41.4,56.0,44.1,36.4,97,72,23,30.09,30.03,6,1,7,0.00
2013-10-26,86.0,59.0,41.2,56.3,43.3,36.0,97,66,18,30.09,29.35,6,1,8,0.00
2013-10-27,63.9,50.0,40.6,51.4,43.9,39.6,96,81,51,29.35,29.06,8,2,11,0.00
2013-10-28,60.3,52.7,50.2,49.7,46.9,39.6,95,82,48,29.18,29.00,8,1,10,0.08
2013-10-29,62.2,52.3,42.8,52.6,45.9,38.6,95,81,44,29.35,29.18,4,0,7,0.00
2013-10-30,68.9,50.3,36.7,57.1,41.6,36.2,99,77,35,29.44,29.35,5,0,6,0.00
2013-10-31,74.7,53.4,38.3,58.3,40.3,33.7,98,70,24,29.47,29.35,4,0,6,0.00
2013-11-1,77.2,55.1,39.2,52.9,39.2,33.1,98,64,23,29.44,29.32,8,1,10,0.00
2013-11-2,76.8,51.8,40.8,48.4,40.7,36.7,85,70,26,29.35,29.23,8,1,8,0.00
2013-11-3,64.0,57.9,41.4,48.4,39.5,25.7,81,53,25,29.32,29.21,5,0,6,0.00
2013-11-4,65.3,48.8,33.3,41.7,31.3,25.6,98,58,25,29.35,29.21,5,1,5,0.00
2013-11-5,71.1,52.7,41.7,33.6,30.8,26.9,60,44,24,29.53,29.35,5,0,6,0.00
2013-11-6,74.8,50.1,38.5,38.5,34.9,31.5,80,58,23,29.53,29.44,8,1,8,0.00
2013-11-7,77.2,56.8,42.4,42.3,36.3,30.4,75,50,20,29.47,29.38,4,0,6,0.00
2013-11-8,82.4,57.0,40.3,52.8,41.8,36.8,97,64,23,29.38,29.26,5,0,5,0.00
2013-11-9,73.0,53.4,41.0,53.9,43.2,32.9,97,75,24,29.38,29.29,7,1,8,0.00
2013-11-10,67.8,53.0,44.6,52.5,45.6,36.3,97,80,32,29.44,29.35,8,1,8,0.00
2013-11-11,71.1,55.4,44.2,52.3,44.4,35.4,97,71,28,29.47,29.38,5,0,6,0.00
2013-11-12,77.4,59.7,48.2,48.5,44.9,38.7,88,62,26,29.56,29.44,5,0,6,0.00
2013-11-13,80.6,58.4,43.7,55.9,43.8,36.6,96,66,22,29.56,29.41,5,0,6,0.00
2013-11-14,75.4,54.2,42.8,49.9,44.7,40.0,97,74,33,29.41,29.21,6,1,8,0.00
2013-11-15,67.3,52.3,39.9,47.6,40.7,31.1,96,70,27,29.21,29.03,6,1,11,0.00
2013-11-16,64.9,49.7,37.4,49.9,42.9,36.9,98,80,38,29.23,29.12,6,1,6,0.00
2013-11-17,65.3,50.2,42.1,51.1,42.6,37.6,97,79,37,29.41,29.23,6,0,6,0.00
2013-11-18,62.1,47.4,36.5,49.2,41.2,36.2,99,82,42,29.44,29.38,5,0,5,0.00
2013-11-19,59.2,51.6,43.9,54.1,49.1,42.7,96,92,73,29.41,29.26,3,0,6,0.00
2013-11-20,59.2,55.2,51.1,56.2,52.9,49.1,93,92,90,29.29,29.15,0,0,3,0.87
2013-11-21,60.1,52.1,48.4,49.8,38.9,25.7,94,65,37,29.26,29.21,4,0,6,0.00
2013-11-22,64.8,48.8,36.5,35.5,29.9,21.3,90,53,20,29.32,29.21,4,0,7,0.00
2013-11-23,66.4,47.0,34.2,46.5,38.6,33.1,98,78,35,29.41,29.26,5,0,6,0.00
2013-11-24,65.8,46.8,34.5,53.5,39.2,34.0,98,80,33,29.56,29.41,4,0,4,0.00
2013-11-25,70.3,48.1,34.5,54.0,38.9,32.5,99,77,28,29.62,29.53,4,0,5,0.00
2013-11-26,67.6,49.9,37.0,51.5,41.4,34.0,98,78,29,29.56,29.32,4,0,6,0.00
2013-11-27,68.4,50.7,38.3,54.2,40.5,34.5,98,74,33,29.32,29.15,6,1,6,0.00
2013-11-28,68.9,49.6,40.3,53.5,41.1,34.4,97,78,29,29.38,29.18,4,0,6,0.00
2013-11-29,75.0,49.0,37.2,55.9,39.2,32.3,98,76,24,29.53,29.38,4,0,6,0.00
2013-11-30,70.9,47.9,35.2,50.4,38.9,34.2,98,77,27,29.56,29.47,3,0,4,0.00
2013-12-1,74.7,50.7,37.2,53.6,39.2,32.2,98,73,23,29.62,29.50,6,0,8,0.00
2013-12-2,66.9,49.5,37.0,51.2,43.4,36.5,98,83,35,29.53,29.29,8,1,13,0.00
2013-12-3,52.7,46.3,33.8,49.6,39.3,29.0,98,79,41,29.29,29.15,5,1,9,0.00
2013-12-4,53.1,36.2,27.9,41.5,27.4,18.7,98,77,28,29.38,29.23,5,0,5,0.00
2013-12-5,54.5,33.6,23.0,34.5,24.6,18.7,98,76,27,29.47,29.35,4,0,5,0.00
2013-12-6,51.3,38.8,25.9,47.8,32.7,25.1,98,82,38,29.50,29.23,6,1,11,0.79
2013-12-7,49.3,40.6,29.1,47.9,34.5,22.1,98,82,39,29.53,29.21,10,1,10,0.43
2013-12-8,47.8,33.3,26.1,37.2,25.9,17.5,99,79,32,29.59,29.47,5,0,6,0.00
2013-12-9,54.1,33.9,23.5,34.6,23.8,18.1,99,73,28,29.68,29.56,4,0,6,0.00
2013-12-10,61.9,37.4,23.9,36.2,26.9,22.9,99,73,26,29.68,29.47,4,0,5,0.00
2013-12-11,64.9,40.8,28.4,39.2,27.5,19.4,97,67,20,29.50,29.41,6,0,8,0.00
2013-12-12,64.6,40.1,27.7,36.2,28.7,23.4,98,71,23,29.53,29.44,8,1,9,0.00
2013-12-13,64.2,40.6,28.9,46.7,31.9,26.6,99,77,27,29.62,29.50,4,0,5,0.00
2013-12-14,69.1,43.3,30.2,45.7,34.4,29.6,99,77,26,29.65,29.56,6,0,6,0.00
2013-12-15,71.8,44.8,31.1,47.2,35.9,30.9,99,77,24,29.65,29.50,4,0,5,0.00
2013-12-16,76.6,49.6,35.2,43.0,35.2,31.9,91,64,20,29.53,29.38,4,0,8,0.00
2013-12-17,72.3,51.0,37.2,48.4,39.2,32.2,83,67,35,29.44,29.32,0,0,0,0.00
2013-12-18,65.5,49.8,41.4,47.9,42.8,35.7,92,79,35,29.32,29.09,8,1,10,0.00
2013-12-19,56.1,47.6,40.8,43.4,38.5,28.5,96,73,37,29.12,29.03,8,2,9,0.00
2013-12-20,32.2,32.2,32.2,25.8,25.8,25.8,77,77,77,29.23,29.23,0,0,0,0.00
2013-12-21,37.2,37.2,37.2,34.3,34.3,34.3,89,89,89,29.26,29.26,0,0,0,0.00
2013-12-23,53.8,45.6,40.3,43.3,41.3,39.5,97,85,61,29.62,29.62,0,0,0,0.00
2013-12-24,74.1,46.1,35.6,47.8,38.7,35.1,98,80,27,29.62,29.47,2,0,3,0.00
2013-12-25,73.9,47.0,32.9,45.0,35.4,31.6,98,71,24,29.56,29.47,8,0,8,0.00
2013-12-26,75.7,47.7,33.4,45.7,34.0,28.7,98,67,22,29.53,29.44,4,0,5,0.00
2013-12-27,68.0,47.2,33.1,46.3,37.1,28.8,87,70,36,29.50,29.41,0,0,0,0.00
2013-12-28,67.1,46.4,32.2,37.4,29.4,24.0,90,58,22,29.41,29.32,5,0,7,0.00
2013-12-29,73.4,49.7,33.3,34.9,29.4,25.0,76,50,21,29.47,29.35,6,0,6,0.00
2013-12-30,67.6,46.8,31.3,36.6,29.4,25.5,89,56,24,29.56,29.47,6,1,9,0.00
2013-12-31,68.4,49.6,32.7,42.5,33.8,26.0,96,62,22,29.53,29.41,5,1,8,0.00
2014-1-1,70.0,49.1,32.2,38.9,33.3,29.5,99,61,24,29.50,29.38,5,0,5,0.00
2014-1-2,74.1,51.4,35.4,45.0,35.4,29.7,87,59,24,29.44,29.32,6,0,6,0.00